TimeMST,TemperatureF,Dew PointF,Humidity,Sea Level PressureIn,VisibilityMPH,Wind Direction,Wind SpeedMPH,Gust SpeedMPH,PrecipitationIn,Events,Conditions,WindDirDegrees,DateUTC
12:15 AM,35.4,9.0,33,30.12,10.0,SW,4.6,-,N/A,,Clear,230,2013-02-05 07:15:00
12:35 AM,35.6,8.4,32,30.12,10.0,South,4.6,-,N/A,,Clear,180,2013-02-05 07:35:00
12:55 AM,34.7,7.2,32,30.12,10.0,West,6.9,-,N/A,,Clear,280,2013-02-05 07:55:00
1:15 AM,30.6,8.6,40,30.11,10.0,NNW,9.2,-,N/A,,Clear,330,2013-02-05 08:15:00
1:35 AM,30.6,8.4,39,30.11,10.0,WNW,8.1,-,N/A,,Clear,300,2013-02-05 08:35:00
1:55 AM,31.1,8.4,39,30.12,10.0,NW,8.1,-,N/A,,Clear,320,2013-02-05 08:55:00
2:15 AM,33.1,7.9,35,30.14,10.0,WNW,11.5,-,N/A,,Clear,300,2013-02-05 09:15:00
2:35 AM,32.9,7.5,35,30.15,10.0,NW,5.8,-,N/A,,Clear,310,2013-02-05 09:35:00
2:55 AM,32.0,7.7,36,30.15,10.0,West,4.6,-,N/A,,Clear,280,2013-02-05 09:55:00
3:15 AM,28.2,7.7,42,30.15,10.0,NW,5.8,-,N/A,,Clear,310,2013-02-05 10:15:00
3:35 AM,29.5,7.7,40,30.15,10.0,West,8.1,-,N/A,,Clear,270,2013-02-05 10:35:00
3:55 AM,26.6,7.7,45,30.15,10.0,West,8.1,-,N/A,,Clear,260,2013-02-05 10:55:00
4:15 AM,25.9,8.2,47,30.15,10.0,West,8.1,-,N/A,,Clear,280,2013-02-05 11:15:00
4:35 AM,25.3,8.2,48,30.15,10.0,West,6.9,-,N/A,,Clear,280,2013-02-05 11:35:00
4:55 AM,27.1,8.4,45,30.15,10.0,WNW,6.9,-,N/A,,Clear,300,2013-02-05 11:55:00
5:15 AM,29.7,9.0,42,30.15,10.0,NW,6.9,-,N/A,,Clear,320,2013-02-05 12:15:00
5:35 AM,25.0,8.4,50,30.16,10.0,WSW,10.4,-,N/A,,Clear,240,2013-02-05 12:35:00
5:55 AM,25.3,8.2,48,30.17,10.0,West,9.2,-,N/A,,Clear,270,2013-02-05 12:55:00
6:15 AM,22.6,7.7,53,30.17,10.0,West,5.8,-,N/A,,Clear,280,2013-02-05 13:15:00
6:35 AM,24.3,8.4,51,30.17,10.0,WNW,6.9,-,N/A,,Clear,290,2013-02-05 13:35:00
6:55 AM,26.2,8.2,47,30.18,10.0,NNW,4.6,-,N/A,,Clear,330,2013-02-05 13:55:00
7:15 AM,26.1,8.6,48,30.19,10.0,WNW,8.1,-,N/A,,Clear,290,2013-02-05 14:15:00
7:35 AM,27.1,8.4,45,30.19,10.0,NW,5.8,-,N/A,,Clear,310,2013-02-05 14:35:00
7:55 AM,29.3,9.5,44,30.19,10.0,NNW,4.6,-,N/A,,Clear,330,2013-02-05 14:55:00
8:15 AM,31.1,8.6,39,30.19,10.0,NW,4.6,-,N/A,,Clear,310,2013-02-05 15:15:00
8:35 AM,31.5,9.1,39,30.19,10.0,North,3.5,-,N/A,,Clear,360,2013-02-05 15:35:00
8:55 AM,32.0,9.5,39,30.19,10.0,NNW,3.5,-,N/A,,Clear,330,2013-02-05 15:55:00
9:15 AM,33.6,9.3,36,30.20,10.0,Calm,Calm,-,N/A,,Clear,0,2013-02-05 16:15:00
9:35 AM,36.7,9.5,32,30.20,10.0,Calm,Calm,-,N/A,,Clear,0,2013-02-05 16:35:00
9:55 AM,38.7,8.6,29,30.20,10.0,NNW,3.5,-,N/A,,Clear,330,2013-02-05 16:55:00
10:15 AM,40.3,8.8,27,30.19,10.0,Calm,Calm,-,N/A,,Clear,0,2013-02-05 17:15:00
10:35 AM,42.4,8.6,25,30.19,10.0,NNE,5.8,-,N/A,,Clear,20,2013-02-05 17:35:00
10:55 AM,44.8,8.6,23,30.18,10.0,NE,4.6,-,N/A,,Clear,40,2013-02-05 17:55:00
11:15 AM,46.0,8.2,21,30.17,10.0,Calm,Calm,-,N/A,,Clear,0,2013-02-05 18:15:00
11:35 AM,47.5,7.5,20,30.15,10.0,Calm,Calm,-,N/A,,Clear,0,2013-02-05 18:35:00
11:55 AM,47.7,7.3,19,30.14,10.0,Calm,Calm,-,N/A,,Clear,0,2013-02-05 18:55:00
12:15 PM,49.3,6.1,17,30.12,10.0,Calm,Calm,-,N/A,,Clear,0,2013-02-05 19:15:00
12:35 PM,51.1,5.5,16,30.10,10.0,North,4.6,-,N/A,,Clear,350,2013-02-05 19:35:00
12:55 PM,51.8,5.9,16,30.09,10.0,North,6.9,-,N/A,,Clear,360,2013-02-05 19:55:00
1:15 PM,52.3,5.0,15,30.08,10.0,WNW,4.6,-,N/A,,Clear,290,2013-02-05 20:15:00
1:35 PM,52.5,5.4,15,30.07,10.0,NW,5.8,-,N/A,,Clear,320,2013-02-05 20:35:00
1:55 PM,54.7,3.9,13,30.07,10.0,WSW,4.6,-,N/A,,Clear,250,2013-02-05 20:55:00
2:15 PM,54.7,4.5,13,30.06,10.0,WSW,6.9,-,N/A,,Clear,250,2013-02-05 21:15:00
2:35 PM,54.7,6.6,15,30.06,10.0,SW,8.1,-,N/A,,Clear,230,2013-02-05 21:35:00
2:55 PM,54.5,8.4,16,30.05,10.0,SW,11.5,17.3,N/A,,Clear,230,2013-02-05 21:55:00
3:15 PM,53.8,8.6,16,30.05,10.0,SSW,11.5,17.3,N/A,,Clear,210,2013-02-05 22:15:00
3:35 PM,53.8,8.6,16,30.05,10.0,SSW,9.2,17.3,N/A,,Clear,210,2013-02-05 22:35:00
3:55 PM,53.4,9.0,17,30.05,10.0,SW,9.2,-,N/A,,Clear,220,2013-02-05 22:55:00
4:15 PM,52.3,9.3,18,30.05,10.0,SSW,15.0,18.4,N/A,,Clear,200,2013-02-05 23:15:00
4:35 PM,51.1,9.5,19,30.05,10.0,SSW,10.4,19.6,N/A,,Clear,210,2013-02-05 23:35:00
4:55 PM,49.3,10.0,21,30.05,10.0,SSW,11.5,16.1,N/A,,Clear,210,2013-02-05 23:55:00
5:15 PM,47.8,9.5,21,30.05,10.0,SSW,11.5,16.1,N/A,,Clear,210,2013-02-06 00:15:00
5:35 PM,45.7,9.1,23,30.05,10.0,SW,9.2,-,N/A,,Clear,220,2013-02-06 00:35:00
5:55 PM,44.6,9.5,24,30.06,10.0,West,10.4,-,N/A,,Clear,260,2013-02-06 00:55:00
6:15 PM,45.1,10.4,24,30.06,10.0,SSE,3.5,-,N/A,,Clear,150,2013-02-06 01:15:00
6:35 PM,44.8,9.7,24,30.07,10.0,South,3.5,-,N/A,,Clear,180,2013-02-06 01:35:00
6:55 PM,40.8,9.3,27,30.07,10.0,SSE,3.5,-,N/A,,Clear,150,2013-02-06 01:55:00
7:15 PM,37.6,8.6,30,30.08,10.0,South,3.5,-,N/A,,Clear,190,2013-02-06 02:15:00
7:35 PM,35.8,8.4,32,30.07,10.0,Calm,Calm,-,N/A,,Clear,0,2013-02-06 02:35:00
7:55 PM,36.3,9.7,33,30.07,10.0,Calm,Calm,-,N/A,,Clear,0,2013-02-06 02:55:00
8:15 PM,35.2,8.8,33,30.07,10.0,SSE,5.8,-,N/A,,Clear,160,2013-02-06 03:15:00
8:35 PM,34.3,9.7,36,30.07,10.0,SSE,3.5,-,N/A,,Clear,150,2013-02-06 03:35:00
8:55 PM,34.5,9.7,36,30.07,10.0,Calm,Calm,-,N/A,,Clear,0,2013-02-06 03:55:00
9:15 PM,34.2,9.5,36,30.07,10.0,Calm,Calm,-,N/A,,Clear,0,2013-02-06 04:15:00
9:35 PM,31.8,9.5,39,30.07,10.0,WNW,3.5,-,N/A,,Clear,300,2013-02-06 04:35:00
9:55 PM,30.9,10.6,43,30.07,10.0,NNW,3.5,-,N/A,,Clear,340,2013-02-06 04:55:00
10:15 PM,32.5,12.4,43,30.07,10.0,North,4.6,-,N/A,,Clear,360,2013-02-06 05:15:00
10:35 PM,32.2,12.7,45,30.07,10.0,NW,5.8,-,N/A,,Clear,320,2013-02-06 05:35:00
10:55 PM,31.8,13.5,47,30.07,10.0,North,6.9,-,N/A,,Clear,350,2013-02-06 05:55:00
11:15 PM,31.1,13.1,47,30.06,10.0,North,5.8,-,N/A,,Clear,360,2013-02-06 06:15:00
11:35 PM,30.9,12.4,46,30.06,10.0,Calm,Calm,-,N/A,,Clear,0,2013-02-06 06:35:00
11:55 PM,31.8,13.5,47,30.06,10.0,Calm,Calm,-,N/A,,Clear,0,2013-02-06 06:55:00